Time,TemperatureF,DewpointF,PressureIn,WindDirection,WindDirectionDegrees,WindSpeedMPH,WindSpeedGustMPH,Humidity,HourlyPrecipIn,Conditions,Clouds,dailyrainin,SolarRadiationWatts/m^2,SoftwareType,DateUTC
2013-08-05 00:00:00,63.0,60.0,30.24,ENE,78,2.0,13.0,89,-99.99,,,-99.99,0.210000,,2013-08-05 06:00:00,
2013-08-05 00:52:00,63.0,60.0,30.24,ENE,78,2.0,13.0,89,-99.99,,,-99.99,0.210000,,2013-08-05 06:52:00,
2013-08-05 02:00:00,62.0,59.0,30.21,North,351,1.0,-999.0,89,-99.99,,,-99.99,0.120000,,2013-08-05 08:00:00,
2013-08-05 02:53:00,62.0,59.0,30.21,North,351,1.0,-999.0,89,-99.99,,,-99.99,0.120000,,2013-08-05 08:53:00,
2013-08-05 03:00:00,62.0,60.0,30.20,NW,312,1.0,-999.0,91,-99.99,,,-99.99,0.150000,,2013-08-05 09:00:00,
2013-08-05 04:00:00,60.0,58.0,30.18,SW,224,0.0,3.0,94,-99.99,,,-99.99,0.160000,,2013-08-05 10:00:00,
2013-08-05 04:53:00,60.0,58.0,30.18,SW,224,0.0,3.0,94,-99.99,,,-99.99,0.160000,,2013-08-05 10:53:00,
2013-08-05 05:00:00,60.0,58.0,30.18,ESE,110,1.0,2.0,93,-99.99,,,-99.99,0.100000,,2013-08-05 11:00:00,
2013-08-05 05:58:00,60.0,58.0,30.18,ESE,110,1.0,2.0,93,-99.99,,,-99.99,0.100000,,2013-08-05 11:58:00,
2013-08-05 06:00:00,59.0,58.0,30.19,SW,223,0.0,3.0,95,-99.99,,,-99.99,0.140000,,2013-08-05 12:00:00,
2013-08-05 07:00:00,60.0,59.0,30.20,West,260,0.0,1.0,96,-99.99,,,-99.99,22.170000,,2013-08-05 13:00:00,
2013-08-05 08:00:00,68.0,59.0,30.18,North,6,0.0,1.0,74,-99.99,,,-99.99,175.100006,,2013-08-05 14:00:00,
2013-08-05 09:58:00,71.0,57.0,30.20,NW,323,1.0,3.0,61,-99.99,,,-99.99,367.500000,,2013-08-05 15:58:00,
2013-08-05 10:00:00,71.0,57.0,30.19,West,271,1.0,5.0,61,-99.99,,,-99.99,531.000000,,2013-08-05 16:00:00,
2013-08-05 10:59:00,71.0,57.0,30.19,West,271,1.0,5.0,61,-99.99,,,-99.99,531.000000,,2013-08-05 16:59:00,
2013-08-05 11:00:00,76.0,59.0,30.19,WSW,239,3.0,5.0,56,-99.99,,,-99.99,714.900024,,2013-08-05 17:00:00,
2013-08-05 12:00:00,78.0,52.0,30.18,SSW,212,2.0,-999.0,40,-99.99,,,-99.99,837.000000,,2013-08-05 18:00:00,
2013-08-05 12:54:00,78.0,52.0,30.18,SSW,212,2.0,-999.0,40,-99.99,,,-99.99,837.000000,,2013-08-05 18:54:00,
2013-08-05 13:00:00,80.0,55.0,30.16,SW,231,3.0,-999.0,42,-99.99,,,-99.99,869.000000,,2013-08-05 19:00:00,
2013-08-05 13:57:00,80.0,55.0,30.16,SW,231,3.0,-999.0,42,-99.99,,,-99.99,869.000000,,2013-08-05 19:57:00,
2013-08-05 14:00:00,83.0,54.0,30.13,SW,235,4.0,6.0,37,-99.99,,,-99.99,952.000000,,2013-08-05 20:00:00,
2013-08-05 15:00:00,83.0,52.0,30.11,WSW,252,6.0,10.0,34,-99.99,,,-99.99,849.000000,,2013-08-05 21:00:00,
2013-08-05 15:54:00,83.0,52.0,30.11,WSW,252,6.0,10.0,34,-99.99,,,-99.99,849.000000,,2013-08-05 21:54:00,
2013-08-05 16:00:00,86.0,50.0,30.08,SW,236,3.0,11.0,29,-99.99,,,-99.99,647.000000,,2013-08-05 22:00:00,
2013-08-05 16:53:00,86.0,50.0,30.08,SW,236,3.0,11.0,29,-99.99,,,-99.99,647.000000,,2013-08-05 22:53:00,
2013-08-05 17:00:00,80.0,54.0,30.07,SSW,201,2.0,8.0,41,-99.99,,,-99.99,348.000000,,2013-08-05 23:00:00,
2013-08-05 18:00:00,79.0,58.0,30.04,SSW,207,3.0,6.0,49,-99.99,,,-99.99,146.800003,,2013-08-06 00:00:00,
2013-08-05 19:00:00,77.0,48.0,30.05,SSW,211,5.0,7.0,35,-99.99,,,-99.99,66.199997,,2013-08-06 01:00:00,
2013-08-05 20:00:00,77.0,44.0,30.05,WSW,245,7.0,8.0,31,-99.99,,,-99.99,2.220000,,2013-08-06 02:00:00,
2013-08-05 21:00:00,72.0,52.0,30.08,South,182,1.0,29.0,49,-99.99,,,-99.99,0.250000,,2013-08-06 03:00:00,
2013-08-05 21:52:00,72.0,52.0,30.08,South,182,1.0,29.0,49,-99.99,,,-99.99,0.250000,,2013-08-06 03:52:00,
2013-08-05 22:00:00,69.0,55.0,30.10,NE,38,1.0,-999.0,60,-99.99,,,-99.99,0.130000,,2013-08-06 04:00:00,
2013-08-05 22:53:00,69.0,55.0,30.10,NE,38,1.0,-999.0,60,-99.99,,,-99.99,0.130000,,2013-08-06 04:53:00,
2013-08-05 23:00:00,64.0,55.0,30.10,SSW,202,0.0,-999.0,73,-99.99,,,-99.99,0.180000,,2013-08-06 05:00:00,
2013-08-05 23:53:00,64.0,55.0,30.10,SSW,202,0.0,-999.0,73,-99.99,,,-99.99,0.180000,,2013-08-06 05:53:00,